Williamsport, PA

10:43 AM EDT on June 22, 2017 (GMT -0400)
Williamsport Rgnl

Weather History for KIPT - February, 2014

Change the Weather History Date:

Friday, February 21, 2014

  Actual Average Record
Temperature  
Mean Temperature 38 °F 31 °F  
Max Temperature 45 °F 40 °F 69 °F (1930)
Min Temperature 31 °F 22 °F -2 °F (1936)
Degree Days  
Heating Degree Days 27 34  
Month to date heating degree days 881 756  
Since 1 July heating degree days 4551 4235  
Cooling Degree Days 0 0  
Month to date cooling degree days 0 0  
Year to date cooling degree days 0 0  
Moisture  
Dew Point 32 °F    
Average Humidity 70    
Maximum Humidity 89    
Minimum Humidity 51    
Precipitation  
Precipitation 0.11 in 0.08 in 1.18 in (1954)
Month to date precipitation 2.55 1.74  
Year to date precipitation 3.80 4.44  
Snow  
Snow 0.00 in 0.30 in 7.40 in (2011)
Month to date snowfall 21.6 6.6  
Since 1 July snowfall 45.8 25.8  
Snow Depth 7.00 in    
Sea Level Pressure  
Sea Level Pressure 29.77 in    
Wind  
Wind Speed 9 mph (WSW)    
Max Wind Speed 25 mph    
Max Gust Speed 33 mph    
Visibility 8 miles    
Events Rain    
T = Trace of Precipitation, MM = Missing Value Source: NWS Daily Summary

Daily Weather History Graph

Daily Weather History Graph

Search for Another Location

Airport or City:

Trip Planner

Search our weather history database for the weather conditions in past years. The results will help you decide how hot, cold, wet, or windy it might be!

Date:

Astronomy

Feb. 21, 2014 Rise Set
Actual Time 6:54 AM EST 5:49 PM EST
Civil Twilight 6:26 AM EST 6:17 PM EST
Nautical Twilight 5:54 AM EST 6:49 PM EST
Astronomical Twilight 5:22 AM EST 7:21 PM EST
Moon No Moon Rise 10:12 AM EST (2/21)
Length of Visible Light 11h 50m
Length of Day
10h 54m
Waning Gibbous, 61% of the Moon is Illuminated
Feb 21
Waning Gibbous
Feb 22
Last Quarter
Mar 1
New
Mar 8
First Quarter
Mar 16
Full

Hourly Weather History & Observations

Time (EST) Temp. Windchill Dew Point Humidity Pressure Visibility Wind Dir Wind Speed Gust Speed Precip Events Conditions
12:54 AM 42.1 °F 36.1 °F 26.1 °F 53% 29.88 in 10.0 mi ENE 10.4 mph 19.6 mph N/A   Mostly Cloudy
1:54 AM 42.1 °F 35.7 °F 27.0 °F 55% 29.87 in 10.0 mi East 11.5 mph - N/A   Clear
2:54 AM 41.0 °F 33.1 °F 27.0 °F 57% 29.83 in 10.0 mi ENE 15.0 mph - N/A   Clear
3:54 AM 41.0 °F 32.8 °F 28.0 °F 60% 29.81 in 10.0 mi ENE 16.1 mph - N/A   Partly Cloudy
4:54 AM 39.9 °F 32.9 °F 28.0 °F 63% 29.80 in 10.0 mi ENE 11.5 mph - N/A   Scattered Clouds
5:54 AM 41.0 °F 33.5 °F 30.0 °F 65% 29.79 in 10.0 mi ENE 13.8 mph - N/A   Clear
6:54 AM 41.0 °F 34.7 °F 32.0 °F 70% 29.77 in 10.0 mi NE 10.4 mph - N/A   Scattered Clouds
7:54 AM 39.9 °F 33.9 °F 33.1 °F 77% 29.75 in 10.0 mi ENE 9.2 mph - N/A   Clear
8:54 AM 42.1 °F 36.1 °F 35.1 °F 76% 29.72 in 10.0 mi East 10.4 mph - N/A   Clear
9:54 AM 43.0 °F 36.0 °F 36.0 °F 76% 29.69 in 10.0 mi SE 13.8 mph 21.9 mph N/A   Mostly Cloudy
10:19 AM 44.6 °F 39.2 °F 37.4 °F 76% 29.66 in 9.0 mi SE 10.4 mph 21.9 mph N/A   Overcast
10:32 AM 44.6 °F 39.2 °F 39.2 °F 81% 29.66 in 8.0 mi SE 10.4 mph 23.0 mph N/A   Overcast
10:54 AM 44.1 °F 36.5 °F 39.0 °F 82% 29.65 in 3.0 mi SSE 17.3 mph 24.2 mph 0.00 in Rain Rain
11:06 AM 44.6 °F 36.1 °F 39.2 °F 81% 29.64 in 4.0 mi SSE 21.9 mph 32.2 mph 0.01 in Rain Light Rain
11:43 AM 42.8 °F 36.6 °F 39.2 °F 87% 29.71 in 2.5 mi WSW 11.5 mph 25.3 mph 0.06 in Rain Rain
11:52 AM 41.0 °F 37.1 °F 39.2 °F 93% 29.69 in 2.5 mi West 5.8 mph - 0.08 in Rain Rain
11:54 AM 42.1 °F 38.4 °F 39.9 °F 92% 29.71 in 2.0 mi West 5.8 mph - 0.08 in Rain Rain
11:59 AM 42.8 °F 37.0 °F 39.2 °F 87% 29.71 in 2.0 mi West 10.4 mph - 0.01 in Rain Rain
12:10 PM 41.0 °F 34.7 °F 39.2 °F 93% 29.70 in 2.0 mi West 10.4 mph - 0.03 in Rain Rain
12:20 PM 42.8 °F 34.8 °F 37.4 °F 81% 29.71 in 8.0 mi West 17.3 mph 24.2 mph 0.03 in Rain Light Rain
12:54 PM 41.0 °F 32.2 °F 35.1 °F 79% 29.74 in 10.0 mi West 18.4 mph 28.8 mph 0.03 in   Overcast
1:54 PM 39.9 °F 33.9 °F 30.0 °F 68% 29.73 in 10.0 mi West 9.2 mph - N/A   Overcast
2:54 PM 41.0 °F 36.4 °F 30.0 °F 65% 29.74 in 10.0 mi West 6.9 mph - 0.00 in   Overcast
3:54 PM 44.1 °F 39.0 °F 28.9 °F 55% 29.74 in 10.0 mi West 9.2 mph - N/A   Scattered Clouds
4:54 PM 45.0 °F 41.8 °F 28.0 °F 52% 29.74 in 10.0 mi West 5.8 mph - N/A   Partly Cloudy
5:54 PM 43.0 °F - 28.0 °F 56% 29.77 in 10.0 mi Calm Calm - N/A   Clear
6:54 PM 36.0 °F - 28.0 °F 73% 29.81 in 10.0 mi Calm Calm - N/A   Clear
7:54 PM 42.1 °F 36.1 °F 26.1 °F 53% 29.83 in 10.0 mi WSW 10.4 mph - N/A   Clear
8:54 PM 35.1 °F 32.2 °F 27.0 °F 72% 29.86 in 10.0 mi NNW 3.5 mph - N/A   Partly Cloudy
9:54 PM 32.0 °F - 26.1 °F 79% 29.88 in 10.0 mi Calm Calm - N/A   Clear
10:54 PM 37.9 °F 34.4 °F 23.0 °F 55% 29.89 in 10.0 mi Variable 4.6 mph - N/A   Clear
11:54 PM 43.0 °F 36.8 °F 21.0 °F 42% 29.91 in 10.0 mi SW 11.5 mph 27.6 mph N/A   Clear